Time,TemperatureF,DewpointF,PressureIn,WindDirection,WindDirectionDegrees,WindSpeedMPH,WindSpeedGustMPH,Humidity,HourlyPrecipIn,Conditions,Clouds,dailyrainin,SolarRadiationWatts/m^2,SoftwareType,DateUTC
2013-09-09 00:01:00,55.0,54.0,-100.00,SE,143,0.0,3.0,97,0.00,,,0.00,0.000000,,2013-09-09 07:01:00,
2013-09-09 00:11:00,55.0,54.0,-100.00,SE,143,0.0,3.0,97,0.00,,,0.00,0.000000,,2013-09-09 07:11:00,
2013-09-09 00:21:00,55.0,54.0,-100.00,SE,143,0.0,3.0,97,0.00,,,0.00,0.000000,,2013-09-09 07:21:00,
2013-09-09 00:52:00,55.0,54.0,-100.00,ESE,116,0.0,3.0,98,0.00,,,0.00,0.000000,,2013-09-09 07:52:00,
2013-09-09 01:02:00,55.0,54.0,-100.00,ESE,116,0.0,3.0,98,0.00,,,0.00,0.000000,,2013-09-09 08:02:00,
2013-09-09 01:11:00,55.0,54.0,-100.00,ESE,116,0.0,3.0,98,0.00,,,0.00,0.000000,,2013-09-09 08:11:00,
2013-09-09 01:21:00,55.0,54.0,-100.00,ESE,116,0.0,3.0,98,0.00,,,0.00,0.000000,,2013-09-09 08:21:00,
2013-09-09 01:52:00,55.0,54.0,-100.00,SE,138,0.0,3.0,98,0.00,,,0.00,0.000000,,2013-09-09 08:52:00,
2013-09-09 02:01:00,55.0,54.0,-100.00,SE,138,0.0,3.0,98,0.00,,,0.00,0.000000,,2013-09-09 09:01:00,
2013-09-09 02:11:00,55.0,54.0,-100.00,SE,138,0.0,3.0,98,0.00,,,0.00,0.000000,,2013-09-09 09:11:00,
2013-09-09 02:22:00,55.0,54.0,-100.00,SE,138,0.0,3.0,98,0.00,,,0.00,0.000000,,2013-09-09 09:22:00,
2013-09-09 02:54:00,55.0,54.0,-100.00,SE,142,1.0,3.0,98,0.00,,,-99.99,0.000000,,2013-09-09 09:54:00,
2013-09-09 03:03:00,55.0,54.0,-100.00,SE,142,1.0,3.0,98,0.00,,,-99.99,0.000000,,2013-09-09 10:03:00,
2013-09-09 03:12:00,55.0,54.0,-100.00,SE,142,1.0,3.0,98,0.00,,,-99.99,0.000000,,2013-09-09 10:12:00,
2013-09-09 03:23:00,55.0,54.0,-100.00,SE,142,1.0,3.0,98,0.00,,,-99.99,0.000000,,2013-09-09 10:23:00,
2013-09-09 03:52:00,54.0,53.0,-100.00,SSE,148,2.0,3.0,98,0.00,,,0.00,0.000000,,2013-09-09 10:52:00,
2013-09-09 04:02:00,54.0,53.0,-100.00,SSE,148,2.0,3.0,98,0.00,,,0.00,0.000000,,2013-09-09 11:02:00,
2013-09-09 04:11:00,54.0,53.0,-100.00,SSE,148,2.0,3.0,98,0.00,,,0.00,0.000000,,2013-09-09 11:11:00,
2013-09-09 04:21:00,54.0,53.0,-100.00,SSE,148,2.0,3.0,98,0.00,,,0.00,0.000000,,2013-09-09 11:21:00,
2013-09-09 04:52:00,54.0,53.0,-100.00,SSE,148,1.0,3.0,98,0.01,,,0.01,0.000000,,2013-09-09 11:52:00,
2013-09-09 05:01:00,54.0,53.0,-100.00,SSE,148,1.0,3.0,98,0.01,,,0.01,0.000000,,2013-09-09 12:01:00,
2013-09-09 05:12:00,54.0,53.0,-100.00,SSE,148,1.0,3.0,98,0.01,,,0.01,0.000000,,2013-09-09 12:12:00,
2013-09-09 05:22:00,54.0,53.0,-100.00,SSE,148,1.0,3.0,98,0.01,,,0.01,0.000000,,2013-09-09 12:22:00,
2013-09-09 05:52:00,54.0,53.0,-100.00,SE,144,1.0,3.0,98,0.00,,,0.01,0.000000,,2013-09-09 12:52:00,
2013-09-09 06:01:00,54.0,53.0,-100.00,SE,144,1.0,3.0,98,0.00,,,0.01,0.000000,,2013-09-09 13:01:00,
2013-09-09 06:11:00,54.0,53.0,-100.00,SE,144,1.0,3.0,98,0.00,,,0.01,0.000000,,2013-09-09 13:11:00,
2013-09-09 06:21:00,54.0,53.0,-100.00,SE,144,1.0,3.0,98,0.00,,,0.01,0.000000,,2013-09-09 13:21:00,
2013-09-09 06:52:00,54.0,53.0,-100.00,SE,138,0.0,2.0,98,0.00,,,0.01,0.000000,,2013-09-09 13:52:00,
2013-09-09 07:02:00,54.0,53.0,-100.00,SE,138,0.0,2.0,98,0.00,,,0.01,0.000000,,2013-09-09 14:02:00,
2013-09-09 07:12:00,54.0,53.0,-100.00,SE,138,0.0,2.0,98,0.00,,,0.01,0.000000,,2013-09-09 14:12:00,
2013-09-09 07:21:00,54.0,53.0,-100.00,SE,138,0.0,2.0,98,0.00,,,0.01,0.000000,,2013-09-09 14:21:00,
2013-09-09 07:52:00,54.0,53.0,-100.00,South,173,0.0,3.0,98,0.00,,,0.01,8.000000,,2013-09-09 14:52:00,
2013-09-09 08:02:00,54.0,53.0,-100.00,South,173,0.0,3.0,98,0.00,,,0.01,8.000000,,2013-09-09 15:02:00,
2013-09-09 08:11:00,54.0,53.0,-100.00,South,173,0.0,3.0,98,0.00,,,0.01,8.000000,,2013-09-09 15:11:00,
2013-09-09 08:22:00,54.0,53.0,-100.00,South,173,0.0,3.0,98,0.00,,,0.01,8.000000,,2013-09-09 15:22:00,
2013-09-09 08:53:00,55.0,55.0,-100.00,SSE,149,0.0,2.0,99,0.00,,,0.01,20.000000,,2013-09-09 15:53:00,
2013-09-09 09:03:00,55.0,55.0,-100.00,SSE,149,0.0,2.0,99,0.00,,,0.01,20.000000,,2013-09-09 16:03:00,
2013-09-09 09:13:00,55.0,55.0,-100.00,SSE,149,0.0,2.0,99,0.00,,,0.01,20.000000,,2013-09-09 16:13:00,
2013-09-09 09:24:00,55.0,55.0,-100.00,SSE,149,0.0,2.0,99,0.00,,,0.01,20.000000,,2013-09-09 16:24:00,
2013-09-09 09:54:00,57.0,56.0,-100.00,South,178,0.0,3.0,97,0.00,,,0.01,49.000000,,2013-09-09 16:54:00,
2013-09-09 10:03:00,57.0,56.0,-100.00,South,178,0.0,3.0,97,0.00,,,0.01,49.000000,,2013-09-09 17:03:00,
2013-09-09 10:12:00,57.0,56.0,-100.00,South,178,0.0,3.0,97,0.00,,,0.01,49.000000,,2013-09-09 17:12:00,
2013-09-09 10:23:00,57.0,56.0,-100.00,South,178,0.0,3.0,97,0.00,,,0.01,49.000000,,2013-09-09 17:23:00,
2013-09-09 10:53:00,64.0,59.0,-100.00,ESE,123,0.0,2.0,85,0.00,,,0.01,420.000000,,2013-09-09 17:53:00,
2013-09-09 11:02:00,64.0,59.0,-100.00,ESE,123,0.0,2.0,85,0.00,,,0.01,420.000000,,2013-09-09 18:02:00,
2013-09-09 11:13:00,64.0,59.0,-100.00,ESE,123,0.0,2.0,85,0.00,,,0.01,420.000000,,2013-09-09 18:13:00,
2013-09-09 11:21:00,64.0,59.0,-100.00,ESE,123,0.0,2.0,85,0.00,,,0.01,420.000000,,2013-09-09 18:21:00,
2013-09-09 11:52:00,70.0,59.0,-100.00,SW,232,1.0,4.0,67,0.00,,,0.01,681.000000,,2013-09-09 18:52:00,
2013-09-09 12:01:00,70.0,59.0,-100.00,SW,232,1.0,4.0,67,0.00,,,0.01,681.000000,,2013-09-09 19:01:00,
2013-09-09 12:11:00,70.0,59.0,-100.00,SW,232,1.0,4.0,67,0.00,,,0.01,681.000000,,2013-09-09 19:11:00,
2013-09-09 12:22:00,70.0,59.0,-100.00,SW,232,1.0,4.0,67,0.00,,,0.01,681.000000,,2013-09-09 19:22:00,
2013-09-09 12:52:00,73.0,61.0,-100.00,WSW,240,2.0,5.0,66,0.00,,,0.01,782.000000,,2013-09-09 19:52:00,
2013-09-09 13:02:00,73.0,61.0,-100.00,WSW,240,2.0,5.0,66,0.00,,,0.01,782.000000,,2013-09-09 20:02:00,
2013-09-09 13:12:00,73.0,61.0,-100.00,WSW,240,2.0,5.0,66,0.00,,,0.01,782.000000,,2013-09-09 20:12:00,
2013-09-09 13:21:00,73.0,61.0,-100.00,WSW,240,2.0,5.0,66,0.00,,,0.01,782.000000,,2013-09-09 20:21:00,
2013-09-09 13:53:00,75.0,60.0,-100.00,SW,231,3.0,8.0,59,0.00,,,0.01,809.000000,,2013-09-09 20:53:00,
2013-09-09 14:02:00,75.0,60.0,-100.00,SW,231,3.0,8.0,59,0.00,,,0.01,809.000000,,2013-09-09 21:02:00,
2013-09-09 14:12:00,75.0,60.0,-100.00,SW,231,3.0,8.0,59,0.00,,,0.01,809.000000,,2013-09-09 21:12:00,
2013-09-09 14:22:00,75.0,60.0,-100.00,SW,231,3.0,8.0,59,0.00,,,0.01,809.000000,,2013-09-09 21:22:00,
2013-09-09 14:54:00,76.0,60.0,-100.00,SW,229,3.0,8.0,58,0.00,,,0.01,777.000000,,2013-09-09 21:54:00,
2013-09-09 15:05:00,76.0,60.0,-100.00,SW,229,3.0,8.0,58,0.00,,,0.01,777.000000,,2013-09-09 22:05:00,
2013-09-09 15:13:00,76.0,60.0,-100.00,SW,229,3.0,8.0,58,0.00,,,0.01,777.000000,,2013-09-09 22:13:00,
2013-09-09 15:24:00,76.0,60.0,-100.00,SW,229,3.0,8.0,58,0.00,,,0.01,777.000000,,2013-09-09 22:24:00,
2013-09-09 15:54:00,76.0,60.0,-100.00,SW,232,3.0,10.0,58,0.00,,,0.01,693.000000,,2013-09-09 22:54:00,
2013-09-09 16:03:00,76.0,60.0,-100.00,SW,232,3.0,10.0,58,0.00,,,0.01,693.000000,,2013-09-09 23:03:00,
2013-09-09 16:12:00,76.0,60.0,-100.00,SW,232,3.0,10.0,58,0.00,,,0.01,693.000000,,2013-09-09 23:12:00,
2013-09-09 16:22:00,76.0,60.0,-100.00,SW,232,3.0,10.0,58,0.00,,,0.01,693.000000,,2013-09-09 23:22:00,
2013-09-09 16:52:00,75.0,59.0,-100.00,SW,221,4.0,10.0,58,0.00,,,0.01,564.000000,,2013-09-09 23:52:00,
2013-09-09 17:02:00,75.0,59.0,-100.00,SW,221,4.0,10.0,58,0.00,,,0.01,564.000000,,2013-09-10 00:02:00,
2013-09-09 17:12:00,75.0,59.0,-100.00,SW,221,4.0,10.0,58,0.00,,,0.01,564.000000,,2013-09-10 00:12:00,
2013-09-09 17:21:00,75.0,59.0,-100.00,SW,221,4.0,10.0,58,0.00,,,0.01,564.000000,,2013-09-10 00:21:00,
2013-09-09 17:52:00,73.0,59.0,-100.00,WSW,240,3.0,10.0,62,0.00,,,0.01,402.000000,,2013-09-10 00:52:00,
2013-09-09 18:01:00,73.0,59.0,-100.00,WSW,240,3.0,10.0,62,0.00,,,0.01,402.000000,,2013-09-10 01:01:00,
2013-09-09 18:11:00,73.0,59.0,-100.00,WSW,240,3.0,10.0,62,0.00,,,0.01,402.000000,,2013-09-10 01:11:00,
2013-09-09 18:21:00,73.0,59.0,-100.00,WSW,240,3.0,10.0,62,0.00,,,0.01,402.000000,,2013-09-10 01:21:00,
2013-09-09 18:52:00,69.0,59.0,-100.00,SSW,208,1.0,8.0,70,0.00,,,0.01,203.000000,,2013-09-10 01:52:00,
2013-09-09 19:02:00,69.0,59.0,-100.00,SSW,208,1.0,8.0,70,0.00,,,0.01,203.000000,,2013-09-10 02:02:00,
2013-09-09 19:12:00,69.0,59.0,-100.00,SSW,208,1.0,8.0,70,0.00,,,0.01,203.000000,,2013-09-10 02:12:00,
2013-09-09 19:22:00,69.0,59.0,-100.00,SSW,208,1.0,8.0,70,0.00,,,0.01,203.000000,,2013-09-10 02:22:00,
2013-09-09 19:52:00,62.0,59.0,-100.00,SE,143,1.0,3.0,89,0.00,,,0.01,18.000000,,2013-09-10 02:52:00,
2013-09-09 20:02:00,62.0,59.0,-100.00,SE,143,1.0,3.0,89,0.00,,,0.01,18.000000,,2013-09-10 03:02:00,
2013-09-09 20:12:00,62.0,59.0,-100.00,SE,143,1.0,3.0,89,0.00,,,0.01,18.000000,,2013-09-10 03:12:00,
2013-09-09 20:22:00,62.0,59.0,-100.00,SE,143,1.0,3.0,89,0.00,,,0.01,18.000000,,2013-09-10 03:22:00,
2013-09-09 20:54:00,59.0,57.0,-100.00,SE,146,2.0,3.0,93,0.00,,,0.01,1.000000,,2013-09-10 03:54:00,
2013-09-09 21:04:00,59.0,57.0,-100.00,SE,146,2.0,3.0,93,0.00,,,0.01,1.000000,,2013-09-10 04:04:00,
2013-09-09 21:13:00,59.0,57.0,-100.00,SE,146,2.0,3.0,93,0.00,,,0.01,1.000000,,2013-09-10 04:13:00,
2013-09-09 21:24:00,59.0,57.0,-100.00,SE,146,2.0,3.0,93,0.00,,,0.01,1.000000,,2013-09-10 04:24:00,
2013-09-09 21:53:00,58.0,57.0,-100.00,SSE,153,1.0,3.0,95,0.00,,,0.01,0.000000,,2013-09-10 04:53:00,
2013-09-09 22:03:00,58.0,57.0,-100.00,SSE,153,1.0,3.0,95,0.00,,,0.01,0.000000,,2013-09-10 05:03:00,
2013-09-09 22:13:00,58.0,57.0,-100.00,SSE,153,1.0,3.0,95,0.00,,,0.01,0.000000,,2013-09-10 05:13:00,
2013-09-09 22:23:00,58.0,57.0,-100.00,SSE,153,1.0,3.0,95,0.00,,,0.01,0.000000,,2013-09-10 05:23:00,
2013-09-09 22:53:00,57.0,56.0,-100.00,SE,142,2.0,3.0,97,0.00,,,0.01,0.000000,,2013-09-10 05:53:00,
2013-09-09 23:03:00,57.0,56.0,-100.00,SE,142,2.0,3.0,97,0.00,,,0.01,0.000000,,2013-09-10 06:03:00,
2013-09-09 23:12:00,57.0,56.0,-100.00,SE,142,2.0,3.0,97,0.00,,,0.01,0.000000,,2013-09-10 06:12:00,
2013-09-09 23:22:00,57.0,56.0,-100.00,SE,142,2.0,3.0,97,0.00,,,0.01,0.000000,,2013-09-10 06:22:00,
2013-09-09 23:52:00,56.0,55.0,-100.00,SE,140,1.0,3.0,97,0.00,,,0.01,0.000000,,2013-09-10 06:52:00,